Time,TemperatureF,DewpointF,PressureIn,WindDirection,WindDirectionDegrees,WindSpeedMPH,WindSpeedGustMPH,Humidity,HourlyPrecipIn,Conditions,Clouds,dailyrainin,SoftwareType,DateUTC
2013-10-06 00:13:00,51.0,50.0,29.74,ENE,62,2.0,6.0,98,0.16,,,1.42,,2013-10-06 05:13:00,
2013-10-06 00:22:00,51.0,50.0,29.73,North,5,0.0,5.0,98,0.19,,,1.46,,2013-10-06 05:22:00,
2013-10-06 00:43:00,51.0,50.0,29.71,ENE,75,2.0,9.0,98,0.16,,,1.45,,2013-10-06 05:43:00,
2013-10-06 00:52:00,51.0,50.0,29.71,NE,42,1.0,11.0,98,0.16,,,1.51,,2013-10-06 05:52:00,
2013-10-06 01:12:00,51.0,50.0,29.71,NE,53,2.0,8.0,98,0.12,,,1.53,,2013-10-06 06:12:00,
2013-10-06 01:22:00,51.0,50.0,29.71,NNE,30,1.0,6.0,98,0.09,,,1.53,,2013-10-06 06:22:00,
2013-10-06 01:42:00,51.0,50.0,29.71,NE,56,0.0,4.0,98,0.09,,,1.54,,2013-10-06 06:42:00,
2013-10-06 01:52:00,51.0,50.0,29.69,NNE,13,1.0,4.0,98,0.04,,,1.55,,2013-10-06 06:52:00,
2013-10-06 02:11:00,51.0,50.0,29.68,NE,49,1.0,5.0,98,0.04,,,1.57,,2013-10-06 07:11:00,
2013-10-06 02:22:00,51.0,50.0,29.69,NE,44,0.0,7.0,98,0.04,,,1.57,,2013-10-06 07:22:00,
2013-10-06 02:42:00,51.0,50.0,29.69,NE,38,1.0,5.0,98,0.03,,,1.57,,2013-10-06 07:42:00,
2013-10-06 02:52:00,51.0,50.0,29.70,NNE,16,1.0,4.0,98,0.02,,,1.57,,2013-10-06 07:52:00,
2013-10-06 03:11:00,51.0,50.0,29.68,NE,42,0.0,4.0,98,0.00,,,1.57,,2013-10-06 08:11:00,
2013-10-06 03:22:00,51.0,50.0,29.68,NNE,33,1.0,4.0,98,0.00,,,1.57,,2013-10-06 08:22:00,
2013-10-06 03:42:00,51.0,50.0,29.67,West,277,0.0,4.0,98,0.00,,,1.26,,2013-10-06 08:42:00,
2013-10-06 03:52:00,51.0,50.0,29.67,NE,56,0.0,3.0,98,0.00,,,1.26,,2013-10-06 08:52:00,
2013-10-06 04:11:00,51.0,50.0,29.67,NE,48,1.0,5.0,98,0.00,,,1.26,,2013-10-06 09:11:00,
2013-10-06 04:22:00,51.0,50.0,29.67,ENE,67,0.0,2.0,98,0.00,,,1.26,,2013-10-06 09:22:00,
2013-10-06 04:43:00,51.0,50.0,29.67,ENE,76,0.0,2.0,98,0.00,,,1.06,,2013-10-06 09:43:00,
2013-10-06 04:53:00,51.0,50.0,29.67,NE,40,0.0,2.0,98,0.00,,,1.06,,2013-10-06 09:53:00,
2013-10-06 05:13:00,51.0,50.0,29.67,NE,40,0.0,1.0,98,0.01,,,1.07,,2013-10-06 10:13:00,
2013-10-06 05:23:00,51.0,50.0,29.67,NE,40,0.0,0.0,98,0.01,,,1.07,,2013-10-06 10:23:00,
2013-10-06 05:43:00,51.0,50.0,29.67,NE,40,0.0,0.0,98,0.01,,,1.06,,2013-10-06 10:43:00,
2013-10-06 05:53:00,51.0,50.0,29.66,NE,40,0.0,0.0,98,0.01,,,1.06,,2013-10-06 10:53:00,
2013-10-06 06:12:00,51.0,50.0,29.66,NE,40,0.0,0.0,98,0.00,,,1.06,,2013-10-06 11:12:00,
2013-10-06 06:21:00,51.0,50.0,29.66,NE,40,0.0,1.0,98,0.00,,,1.06,,2013-10-06 11:21:00,
2013-10-06 06:52:00,51.0,50.0,29.66,NE,40,0.0,1.0,98,0.01,,,1.07,,2013-10-06 11:52:00,
2013-10-06 07:12:00,51.0,50.0,29.66,NE,40,0.0,1.0,98,0.01,,,1.07,,2013-10-06 12:12:00,
2013-10-06 07:22:00,51.0,50.0,29.65,NE,40,0.0,1.0,98,0.01,,,1.07,,2013-10-06 12:22:00,
2013-10-06 07:42:00,51.0,50.0,29.65,SW,226,1.0,3.0,98,0.00,,,1.07,,2013-10-06 12:42:00,
2013-10-06 07:52:00,50.0,49.0,29.65,South,169,1.0,4.0,98,0.00,,,1.07,,2013-10-06 12:52:00,
2013-10-06 08:11:00,50.0,49.0,29.65,SSE,160,1.0,4.0,98,0.00,,,1.07,,2013-10-06 13:11:00,
2013-10-06 08:21:00,50.0,49.0,29.66,West,263,1.0,5.0,98,0.00,,,1.07,,2013-10-06 13:21:00,
2013-10-06 08:42:00,50.0,49.0,29.67,WSW,255,1.0,5.0,98,0.00,,,1.07,,2013-10-06 13:42:00,
2013-10-06 08:52:00,50.0,49.0,29.67,SW,222,0.0,4.0,98,0.00,,,1.07,,2013-10-06 13:52:00,
2013-10-06 09:11:00,51.0,50.0,29.67,West,261,0.0,4.0,98,0.00,,,1.07,,2013-10-06 14:11:00,
2013-10-06 09:22:00,51.0,51.0,29.67,WSW,250,0.0,4.0,99,0.00,,,1.07,,2013-10-06 14:22:00,
2013-10-06 09:42:00,51.0,50.0,29.67,WSW,252,0.0,3.0,98,0.00,,,1.07,,2013-10-06 14:42:00,
2013-10-06 09:52:00,52.0,52.0,29.67,WSW,240,0.0,3.0,99,0.00,,,1.07,,2013-10-06 14:52:00,
2013-10-06 10:11:00,52.0,52.0,29.67,SW,236,0.0,4.0,99,0.00,,,1.07,,2013-10-06 15:11:00,
2013-10-06 10:22:00,52.0,52.0,29.67,WSW,237,0.0,3.0,99,0.00,,,1.07,,2013-10-06 15:22:00,
2013-10-06 10:43:00,53.0,53.0,29.67,South,184,0.0,2.0,99,0.00,,,1.06,,2013-10-06 15:43:00,
2013-10-06 10:53:00,53.0,53.0,29.67,ENE,78,0.0,2.0,99,0.00,,,1.06,,2013-10-06 15:53:00,
2013-10-06 11:12:00,53.0,53.0,29.68,West,261,0.0,3.0,99,0.00,,,1.06,,2013-10-06 16:12:00,
2013-10-06 11:23:00,54.0,53.0,29.68,West,261,0.0,2.0,98,0.00,,,1.06,,2013-10-06 16:23:00,
2013-10-06 11:42:00,54.0,54.0,29.68,WSW,256,0.0,3.0,99,0.00,,,1.06,,2013-10-06 16:42:00,
2013-10-06 11:53:00,54.0,53.0,29.69,WNW,296,0.0,3.0,98,0.00,,,1.06,,2013-10-06 16:53:00,
2013-10-06 12:12:00,54.0,53.0,29.69,WNW,289,0.0,2.0,98,0.00,,,1.06,,2013-10-06 17:12:00,
2013-10-06 12:22:00,54.0,53.0,29.69,NNE,16,0.0,2.0,97,0.00,,,1.06,,2013-10-06 17:22:00,
2013-10-06 12:42:00,53.0,52.0,29.69,NE,46,0.0,3.0,97,0.00,,,0.99,,2013-10-06 17:42:00,
2013-10-06 12:52:00,53.0,52.0,29.69,NE,47,0.0,3.0,97,0.00,,,0.99,,2013-10-06 17:52:00,
2013-10-06 13:12:00,53.0,52.0,29.70,NE,52,0.0,2.0,97,0.00,,,0.99,,2013-10-06 18:12:00,
2013-10-06 13:22:00,53.0,52.0,29.70,NE,52,0.0,2.0,96,0.00,,,0.99,,2013-10-06 18:22:00,
2013-10-06 13:42:00,53.0,52.0,29.69,NE,51,0.0,2.0,96,0.00,,,0.94,,2013-10-06 18:42:00,
2013-10-06 13:52:00,53.0,52.0,29.69,NE,51,0.0,2.0,95,0.00,,,0.94,,2013-10-06 18:52:00,
2013-10-06 14:11:00,53.0,51.0,29.68,ENE,66,1.0,4.0,94,0.00,,,0.94,,2013-10-06 19:11:00,
2013-10-06 14:22:00,53.0,51.0,29.68,ENE,74,0.0,1.0,94,0.00,,,0.94,,2013-10-06 19:22:00,
2013-10-06 14:42:00,53.0,51.0,29.68,ENE,71,0.0,4.0,94,0.00,,,0.92,,2013-10-06 19:42:00,
2013-10-06 14:52:00,53.0,51.0,29.67,NE,55,0.0,2.0,94,0.00,,,0.92,,2013-10-06 19:52:00,
2013-10-06 15:11:00,53.0,51.0,29.68,NNE,24,0.0,2.0,93,0.00,,,0.92,,2013-10-06 20:11:00,
2013-10-06 15:22:00,53.0,51.0,29.68,NE,47,0.0,2.0,94,0.00,,,0.92,,2013-10-06 20:22:00,
2013-10-06 15:52:00,53.0,51.0,29.68,NNE,20,0.0,2.0,94,0.01,,,0.85,,2013-10-06 20:52:00,
2013-10-06 16:12:00,53.0,52.0,29.68,NE,34,0.0,2.0,95,0.02,,,0.86,,2013-10-06 21:12:00,
2013-10-06 16:22:00,52.0,50.0,29.68,NE,39,0.0,3.0,94,0.02,,,0.86,,2013-10-06 21:22:00,
2013-10-06 16:44:00,52.0,51.0,29.69,NE,34,0.0,1.0,95,0.02,,,0.85,,2013-10-06 21:44:00,
2013-10-06 16:54:00,52.0,51.0,29.69,NNE,14,0.0,4.0,95,0.01,,,0.85,,2013-10-06 21:54:00,
2013-10-06 17:04:00,52.0,51.0,29.69,NNE,14,0.0,4.0,95,0.01,,,0.85,,2013-10-06 22:04:00,
2013-10-06 17:13:00,52.0,51.0,29.69,NNE,14,0.0,4.0,95,0.01,,,0.85,,2013-10-06 22:13:00,
2013-10-06 17:24:00,52.0,51.0,29.70,NNE,14,0.0,3.0,95,0.00,,,0.85,,2013-10-06 22:24:00,
2013-10-06 17:42:00,52.0,51.0,29.70,NNE,14,0.0,1.0,95,0.00,,,0.85,,2013-10-06 22:42:00,
2013-10-06 17:53:00,52.0,51.0,29.70,NNE,14,0.0,0.0,95,0.00,,,0.85,,2013-10-06 22:53:00,
2013-10-06 18:12:00,52.0,51.0,29.70,NNE,14,0.0,1.0,95,0.00,,,0.85,,2013-10-06 23:12:00,
2013-10-06 18:22:00,52.0,51.0,29.71,East,100,0.0,2.0,95,0.00,,,0.85,,2013-10-06 23:22:00,
2013-10-06 18:53:00,51.0,49.0,29.72,SSE,153,0.0,4.0,94,0.00,,,0.85,,2013-10-06 23:53:00,
2013-10-06 19:12:00,51.0,49.0,29.72,NNE,18,0.0,2.0,94,0.00,,,0.85,,2013-10-07 00:12:00,
2013-10-06 19:22:00,50.0,48.0,29.73,West,270,0.0,2.0,93,0.00,,,0.85,,2013-10-07 00:22:00,
2013-10-06 19:42:00,50.0,48.0,29.73,WSW,253,0.0,3.0,93,0.00,,,0.85,,2013-10-07 00:42:00,
2013-10-06 19:52:00,50.0,48.0,29.72,ESE,116,0.0,3.0,94,0.00,,,0.85,,2013-10-07 00:52:00,
2013-10-06 20:11:00,50.0,48.0,29.73,SW,236,0.0,2.0,94,0.00,,,0.85,,2013-10-07 01:11:00,
2013-10-06 20:22:00,50.0,48.0,29.74,West,273,0.0,3.0,94,0.00,,,0.85,,2013-10-07 01:22:00,
2013-10-06 20:42:00,49.0,47.0,29.73,WSW,252,0.0,2.0,94,0.00,,,0.84,,2013-10-07 01:42:00,
2013-10-06 20:53:00,49.0,47.0,29.73,North,355,0.0,2.0,94,0.01,,,0.85,,2013-10-07 01:53:00,
2013-10-06 21:12:00,49.0,47.0,29.73,WSW,256,0.0,2.0,94,0.01,,,0.85,,2013-10-07 02:12:00,
2013-10-06 21:22:00,49.0,47.0,29.74,WSW,250,0.0,3.0,94,0.01,,,0.85,,2013-10-07 02:22:00,
2013-10-06 21:42:00,49.0,47.0,29.73,WSW,253,0.0,1.0,94,0.01,,,0.75,,2013-10-07 02:42:00,
2013-10-06 21:53:00,48.0,46.0,29.74,WSW,253,0.0,2.0,94,0.00,,,0.75,,2013-10-07 02:53:00,
2013-10-06 22:12:00,48.0,46.0,29.74,West,280,0.0,3.0,94,0.00,,,0.75,,2013-10-07 03:12:00,
2013-10-06 22:22:00,48.0,46.0,29.75,SSW,212,0.0,2.0,94,0.00,,,0.75,,2013-10-07 03:22:00,
2013-10-06 22:54:00,47.0,45.0,29.76,SSW,212,0.0,2.0,94,0.00,,,0.52,,2013-10-07 03:54:00,
2013-10-06 23:13:00,46.0,44.0,29.75,SSW,212,0.0,0.0,94,0.00,,,0.52,,2013-10-07 04:13:00,
2013-10-06 23:24:00,46.0,44.0,29.76,SSW,212,0.0,0.0,94,0.00,,,0.52,,2013-10-07 04:24:00,
2013-10-06 23:44:00,46.0,44.0,29.76,SSW,212,0.0,0.0,94,0.00,,,0.34,,2013-10-07 04:44:00,
2013-10-06 23:53:00,45.0,43.0,29.76,SSW,212,0.0,1.0,94,0.00,,,0.34,,2013-10-07 04:53:00,